Location: Rogalle
(42.8890°N, 1.1916°E)
Time: 15:24:25
(UTC+00:00)

USA 215 - Pass Details

Date: 13 December 2025
Orbit: 1098 x 1109 km, 123.0° (Epoch: 10 January)

Event Time Altitude Azimuth Distance (km) Brightness Sun altitude
Exits shadow 18:59:28 30° 12° (NNE) 1,872 4.3 -28.0°
Drops below altitude 10° 19:04:49 10° 317° (NW) 2,963 5.9 -29.0°
Sets 19:07:36 0° 307° (NW) 3,921 6.8 -29.5°
